Content
SEND FEEDBACK

Daily
Averages
Monthly
Summary
United States of America

GRUNDY CENTER, IOWA


Home > North America > United States > Iowa
Elevation: 1020 feet     Latitude: 42 22N     Longitude: 092 46W

WEATHER
 
SELECT A DAY
Number of Records: 192,926;   Date Range: 9/4/96 - 12/25/14
 
SHARE

PRINT THIS DATA

[ ← Previous Day ]
WEATHER ALMANAC - FEBRUARY 13, 2013
[ Next Day → ]
[ °C ]   °F
Weather ElementAverageHighLow
Temperature35.1 °F44.1 °F (2:53 pm)25 °F (6:53 am)
Dewpoint28.4 °F34 °F (3:53 pm)23 °F (6:53 am)
Humidity77.4 %92 % (5:53 am)65 % (2:53 pm)
Barometer29.76 in29.86 in (1:53 am)29.66 in (9:53 pm)
Wind Speed9.5 mph16.1 mph (11:53 pm)
Weather ElementAverage
Visibility10 mi
Wind DirectionWSW (255.2 °)

Weather ElementTotal
Precipitation---
Heating Degree Days30.5 (Base 65)
Averaged from 23 records on February 13, 2013
WEATHER CONDITIONS BREAKOUT
WIND DIRECTION BREAKOUT
WEATHER BY HOUR - FEBRUARY 13, 2013
[ °C ]   °F
Local TimeTemperatureDewpointHumidityBarometerVisibilityWind DirectionWind SpeedGust SpeedPrecipitationEventsConditions
1:53 AM28.0 °F25.0 °F88 %29.86 in10.0 miNW (310°)5.8 mphClear
2:53 AM28.9 °F25.0 °F85 %29.84 in10.0 miWest (280°)6.9 mphClear
3:53 AM28.0 °F24.1 °F85 %29.83 in10.0 miWest (280°)5.8 mphClear
4:53 AM27.0 °F24.1 °F89 %29.81 in10.0 miWest (280°)6.9 mphClear
5:53 AM26.1 °F24.1 °F92 %29.82 in10.0 miWNW (290°)6.9 mphClear
6:53 AM25.0 °F23.0 °F92 %29.82 in10.0 miWNW (290°)6.9 mphClear
7:53 AM26.1 °F24.1 °F92 %29.82 in10.0 miWest (280°)5.8 mphClear
8:53 AM28.9 °F25.0 °F85 %29.82 in10.0 miWNW (290°)9.2 mphClear
9:53 AM30.9 °F27.0 °F85 %29.82 in10.0 miWNW (290°)9.2 mphClear
10:53 AM35.1 °F27.0 °F72 %29.81 in10.0 miWest (270°)9.2 mphClear
11:53 AM37.9 °F28.9 °F70 %29.80 in10.0 miWest (260°)10.4 mphClear
12:53 PM39.9 °F32.0 °F73 %29.77 in10.0 miWest (260°)13.8 mphClear
1:53 PM42.1 °F32.0 °F67 %29.76 in10.0 miWest (270°)11.5 mphClear
2:53 PM44.1 °F33.1 °F65 %29.75 in10.0 miWSW (250°)12.7 mphClear
3:53 PM44.1 °F34.0 °F68 %29.73 in10.0 miSW (230°)10.4 mphClear
4:53 PM41.0 °F33.1 °F73 %29.73 in10.0 miSW (220°)6.9 mphScattered Clouds
5:53 PM39.0 °F30.9 °F73 %29.72 in10.0 miSouth (190°)6.9 mphPartly Cloudy
6:53 PM37.9 °F30.9 °F76 %29.72 in10.0 miSouth (190°)8.1 mphPartly Cloudy
7:53 PM41.0 °F30.0 °F65 %29.69 in10.0 miSSW (200°)10.4 mphOvercast
8:53 PM41.0 °F30.0 °F65 %29.68 in10.0 miSSW (210°)13.8 mphOvercast
9:53 PM39.9 °F30.0 °F68 %29.66 in10.0 miSW (220°)12.7 mphMostly Cloudy
10:53 PM37.0 °F30.0 °F76 %29.66 in10.0 miWSW (240°)12.7 mphClear
11:53 PM37.9 °F30.9 °F76 %29.67 in10.0 miWest (270°)16.1 mphClear
Hourly data recorded from KMIW, located miles away from Grundy Center, Iowa







STORIES FROM OUR PARTNERS